{"data":{"norad_id":68266,"intl_designator":"2026-055E","name":"STARLINK-37042","alt_names":[],"object_type":"PAYLOAD","status":"ACTIVE","operator":null,"country":"US","launch_date":"2026-03-19","launch_site_code":"AFETR","launch_vehicle":null,"mission":null,"orbit_class":"UNKNOWN","rcs_meters":null,"size_class":null,"mass_kg":null,"dimensions":null,"purposes":["comms"],"wikipedia_slug":null,"has_3d_model":false,"image_url":null,"decayed_at":null,"tle_current":{"epoch":"2026-09-19T22:45:26.187264Z","epoch_age_seconds":99853,"freshness":"FRESH","line1":"1 68266U 26055E   26262.94821976  .00019281  00000+0  58030-3 0  9999","line2":"2 68266  53.1582 132.6401 0001317  88.3902 271.7251 15.34400599 29739","mean_motion":15.34400599,"eccentricity":0.0001317,"inclination_deg":53.1582,"raan_deg":132.6401,"arg_perigee_deg":88.3902,"mean_anomaly_deg":271.7251,"bstar":0.0005803,"rev_number":2973,"period_min":93.847721445004,"perigee_km":461.80052142829,"apogee_km":463.60239827861,"semimajor_km":6840.8384598535,"source":"CELESTRAK","updated_at":"2026-09-20T09:00:43.846547Z"}}}